AAL2546 KLAX-MMMX

Flight info

Callsign AAL2546
Flight time 2h 25m
Altitude 35000
Route PNDAH2 TCATE DCT PPE UJ7 HMO UT18 NABAS UT49 DGO UJ5 ZCL UT130 DARAN DARAN3A
Aircraft B738/M-SDE2E3FGHIRWXY/LB1

Departure

Time 2026-05-07 23:55
Airport Los Angeles International Airport (KLAX)

Arrival

Time 2026-05-08 02:20
Airport Mexico City Benito Juárez International Airport (MMMX)
Time Latitude Longitude Altitude Speed Heading
2026-05-07 23:27 33.94153 -118.40952 110 ft 0 kts 262°
2026-05-07 23:31 33.94088 -118.40941 93 ft 0 kts 262°
2026-05-07 23:38 33.94088 -118.40934 95 ft 4 kts 262°
2026-05-07 23:39 33.94092 -118.40901 94 ft 4 kts 263°
2026-05-07 23:39 33.94097 -118.40870 94 ft 4 kts 244°
2026-05-07 23:39 33.94112 -118.40847 94 ft 4 kts 207°
2026-05-07 23:39 33.94131 -118.40842 93 ft 1 kts 173°
2026-05-07 23:40 33.94135 -118.40842 93 ft 0 kts 173°
2026-05-07 23:42 33.94106 -118.40838 94 ft 11 kts 173°
2026-05-07 23:43 33.94015 -118.40824 96 ft 13 kts 173°
2026-05-07 23:43 33.93925 -118.40806 97 ft 13 kts 163°
2026-05-07 23:43 33.93852 -118.40742 100 ft 14 kts 138°
2026-05-07 23:43 33.93814 -118.40632 101 ft 15 kts 85°
2026-05-07 23:44 33.93827 -118.40508 102 ft 16 kts 83°
2026-05-07 23:44 33.93842 -118.40370 103 ft 18 kts 83°
2026-05-07 23:44 33.93857 -118.40208 103 ft 21 kts 83°
2026-05-07 23:44 33.93874 -118.40027 104 ft 23 kts 82°
2026-05-07 23:45 33.93895 -118.39823 103 ft 26 kts 83°
2026-05-07 23:45 33.93917 -118.39597 102 ft 28 kts 84°
2026-05-07 23:45 33.93941 -118.39383 99 ft 25 kts 82°
2026-05-07 23:45 33.93956 -118.39251 100 ft 9 kts 83°
2026-05-07 23:46 33.93961 -118.39201 100 ft 0 kts 83°
2026-05-07 23:48 33.93961 -118.39195 100 ft 4 kts 84°
2026-05-07 23:48 33.93968 -118.39113 101 ft 15 kts 82°
2026-05-07 23:48 33.93983 -118.38977 101 ft 17 kts 83°
2026-05-07 23:49 33.94000 -118.38807 101 ft 21 kts 82°
2026-05-07 23:49 33.94017 -118.38636 102 ft 21 kts 84°
2026-05-07 23:49 33.94038 -118.38469 102 ft 20 kts 85°
2026-05-07 23:49 33.94048 -118.38306 103 ft 19 kts 84°
2026-05-07 23:50 33.94070 -118.38148 102 ft 19 kts 85°
2026-05-07 23:50 33.94078 -118.38056 102 ft 0 kts 84°
2026-05-07 23:53 33.94078 -118.38051 102 ft 4 kts 89°
2026-05-07 23:53 33.94059 -118.38010 104 ft 6 kts 144°
2026-05-07 23:53 33.94019 -118.37993 107 ft 6 kts 169°
2026-05-07 23:54 33.93986 -118.38018 109 ft 6 kts 246°
2026-05-07 23:54 33.93973 -118.38145 109 ft 42 kts 263°
2026-05-07 23:54 33.93908 -118.38774 106 ft 109 kts 263°
2026-05-07 23:54 33.93791 -118.39929 120 ft 163 kts 264°
2026-05-07 23:55 33.93660 -118.41356 652 ft 175 kts 262°
2026-05-07 23:55 33.93520 -118.42820 1523 ft 176 kts 262°
2026-05-07 23:55 33.93366 -118.44318 2208 ft 195 kts 263°
2026-05-07 23:55 33.93046 -118.46009 2470 ft 222 kts 243°
2026-05-07 23:56 33.92074 -118.47575 2745 ft 248 kts 233°
2026-05-07 23:56 33.90961 -118.49244 3322 ft 259 kts 232°
2026-05-07 23:56 33.89792 -118.50920 4122 ft 261 kts 232°
2026-05-07 23:56 33.88616 -118.52585 4969 ft 262 kts 232°
2026-05-07 23:57 33.87416 -118.54278 5690 ft 268 kts 229°
2026-05-07 23:57 33.85879 -118.55584 6392 ft 278 kts 202°
2026-05-07 23:57 33.83959 -118.55928 7108 ft 286 kts 177°
2026-05-07 23:57 33.81983 -118.55501 7729 ft 291 kts 168°
2026-05-07 23:58 33.80003 -118.54928 7986 ft 295 kts 167°
2026-05-07 23:58 33.77993 -118.54341 8639 ft 296 kts 167°
2026-05-07 23:58 33.75970 -118.53773 9367 ft 301 kts 167°
2026-05-07 23:58 33.73924 -118.53214 10137 ft 302 kts 166°
2026-05-07 23:59 33.71834 -118.52639 10617 ft 315 kts 163°
2026-05-07 23:59 33.69826 -118.51426 10748 ft 335 kts 137°
2026-05-07 23:59 33.68350 -118.49182 10902 ft 353 kts 117°
2026-05-07 23:59 33.67181 -118.46510 11059 ft 372 kts 115°
2026-05-08 00:00 33.66004 -118.43668 11284 ft 386 kts 115°
2026-05-08 00:00 33.64802 -118.40754 11759 ft 392 kts 115°
2026-05-08 00:00 33.63575 -118.37824 12384 ft 393 kts 115°
2026-05-08 00:00 33.62335 -118.34906 12994 ft 394 kts 115°
2026-05-08 00:01 33.61087 -118.31991 13531 ft 398 kts 115°
2026-05-08 00:01 33.59812 -118.29031 14053 ft 400 kts 115°
2026-05-08 00:01 33.58525 -118.26052 14566 ft 403 kts 116°
2026-05-08 00:01 33.57230 -118.23061 15048 ft 405 kts 116°
2026-05-08 00:02 33.55926 -118.20049 15508 ft 408 kts 116°
2026-05-08 00:02 33.54612 -118.17015 15986 ft 411 kts 116°
2026-05-08 00:02 33.53292 -118.13967 16452 ft 413 kts 116°
2026-05-08 00:02 33.51968 -118.10891 16917 ft 416 kts 115°
2026-05-08 00:03 33.50636 -118.07792 17377 ft 419 kts 115°
2026-05-08 00:03 33.49298 -118.04680 17811 ft 422 kts 115°
2026-05-08 00:03 33.47950 -118.01550 18245 ft 425 kts 115°
2026-05-08 00:03 33.46427 -117.98554 18587 ft 431 kts 128°
2026-05-08 00:04 33.44210 -117.96040 18976 ft 435 kts 137°
2026-05-08 00:04 33.41938 -117.93704 19351 ft 438 kts 137°
2026-05-08 00:04 33.39625 -117.91310 19701 ft 441 kts 137°
2026-05-08 00:04 33.37310 -117.88890 20038 ft 443 kts 136°
2026-05-08 00:05 33.34988 -117.86444 20392 ft 446 kts 136°
2026-05-08 00:05 33.32657 -117.83977 20756 ft 448 kts 136°
2026-05-08 00:05 33.30318 -117.81499 21103 ft 451 kts 136°
2026-05-08 00:05 33.27931 -117.78971 21432 ft 454 kts 136°
2026-05-08 00:06 33.25588 -117.76493 21755 ft 456 kts 136°
2026-05-08 00:06 33.23203 -117.73974 22074 ft 459 kts 136°
2026-05-08 00:06 33.20803 -117.71441 22385 ft 461 kts 136°
2026-05-08 00:06 33.18392 -117.68895 22694 ft 463 kts 136°
2026-05-08 00:07 33.16232 -117.66057 22956 ft 463 kts 121°
2026-05-08 00:07 33.14844 -117.62614 23272 ft 460 kts 107°
2026-05-08 00:07 33.13802 -117.58994 23582 ft 462 kts 106°
2026-05-08 00:07 33.12779 -117.55351 23802 ft 465 kts 106°
2026-05-08 00:08 33.11747 -117.51687 24044 ft 466 kts 106°
2026-05-08 00:08 33.10699 -117.48016 24302 ft 468 kts 107°
2026-05-08 00:08 33.09635 -117.44348 24558 ft 469 kts 107°
2026-05-08 00:08 33.08556 -117.40669 24788 ft 471 kts 107°
2026-05-08 00:09 33.07465 -117.36975 25031 ft 472 kts 107°
2026-05-08 00:09 33.06388 -117.33343 25259 ft 474 kts 107°
2026-05-08 00:09 33.05263 -117.29559 25489 ft 476 kts 107°
2026-05-08 00:09 33.04154 -117.25837 25718 ft 477 kts 107°
2026-05-08 00:10 33.03043 -117.22104 25945 ft 478 kts 107°
2026-05-08 00:10 33.01927 -117.18360 26164 ft 480 kts 107°
2026-05-08 00:10 33.00809 -117.14610 26374 ft 481 kts 107°
2026-05-08 00:10 32.99687 -117.10849 26602 ft 483 kts 107°
2026-05-08 00:11 32.98572 -117.07121 26856 ft 483 kts 107°
2026-05-08 00:11 32.97432 -117.03309 27177 ft 482 kts 107°
2026-05-08 00:11 32.96307 -116.99559 27522 ft 480 kts 107°
2026-05-08 00:11 32.95197 -116.95863 27843 ft 479 kts 107°
2026-05-08 00:12 32.94074 -116.92129 28154 ft 479 kts 107°
2026-05-08 00:12 32.92952 -116.88397 28482 ft 478 kts 107°
2026-05-08 00:12 32.91831 -116.84674 28825 ft 477 kts 107°
2026-05-08 00:12 32.90709 -116.80956 29155 ft 476 kts 107°
2026-05-08 00:13 32.89589 -116.77250 29495 ft 476 kts 107°
2026-05-08 00:13 32.88469 -116.73546 29866 ft 474 kts 107°
2026-05-08 00:13 32.87353 -116.69859 30221 ft 473 kts 107°
2026-05-08 00:13 32.86236 -116.66177 30484 ft 473 kts 107°
2026-05-08 00:14 32.85121 -116.62500 30757 ft 473 kts 107°
2026-05-08 00:14 32.84006 -116.58831 31084 ft 471 kts 107°
2026-05-08 00:14 32.82896 -116.55180 31393 ft 469 kts 107°
2026-05-08 00:14 32.81785 -116.51528 31687 ft 468 kts 107°
2026-05-08 00:15 32.80664 -116.47889 31959 ft 469 kts 108°
2026-05-08 00:15 32.79346 -116.44336 32200 ft 470 kts 112°
2026-05-08 00:15 32.77864 -116.40874 32499 ft 469 kts 114°
2026-05-08 00:15 32.76320 -116.37464 32814 ft 468 kts 115°
2026-05-08 00:16 32.74765 -116.34074 33081 ft 467 kts 115°
2026-05-08 00:16 32.73221 -116.30678 33318 ft 467 kts 115°
2026-05-08 00:16 32.71692 -116.27275 33568 ft 466 kts 114°
2026-05-08 00:16 32.70203 -116.23916 33851 ft 465 kts 114°
2026-05-08 00:17 32.68709 -116.20519 34092 ft 463 kts 114°
2026-05-08 00:17 32.67221 -116.17121 34259 ft 464 kts 114°
2026-05-08 00:17 32.65733 -116.13716 34364 ft 466 kts 114°
2026-05-08 00:17 32.64236 -116.10290 34531 ft 467 kts 114°
2026-05-08 00:18 32.62739 -116.06874 34726 ft 466 kts 114°
2026-05-08 00:18 32.61243 -116.03464 34930 ft 466 kts 114°
2026-05-08 00:18 32.58237 -115.96618 34970 ft 469 kts 114°
2026-05-08 00:19 32.55223 -115.89771 34957 ft 467 kts 114°
2026-05-08 00:19 32.52218 -115.82957 34953 ft 465 kts 114°
2026-05-08 00:20 32.49223 -115.76177 34950 ft 463 kts 114°
2026-05-08 00:20 32.46254 -115.69467 34945 ft 463 kts 114°
2026-05-08 00:21 32.43261 -115.62715 34931 ft 463 kts 114°
2026-05-08 00:21 32.40260 -115.55958 34907 ft 464 kts 114°
2026-05-08 00:22 32.37245 -115.49182 34892 ft 466 kts 114°
2026-05-08 00:22 32.34219 -115.42395 34887 ft 467 kts 114°
2026-05-08 00:23 32.31183 -115.35597 34885 ft 468 kts 114°
2026-05-08 00:23 32.28134 -115.28784 34871 ft 469 kts 114°
2026-05-08 00:24 32.25076 -115.21964 34871 ft 469 kts 114°
2026-05-08 00:24 32.22038 -115.15204 34864 ft 466 kts 114°
2026-05-08 00:25 32.19001 -115.08458 34861 ft 463 kts 114°
2026-05-08 00:25 32.15980 -115.01757 34862 ft 461 kts 114°
2026-05-08 00:26 32.12963 -114.95075 34861 ft 461 kts 114°
2026-05-08 00:26 32.09945 -114.88404 34857 ft 461 kts 114°
2026-05-08 00:27 32.07427 -114.82847 34857 ft 462 kts 114°
2026-05-08 00:27 32.04388 -114.76153 34852 ft 464 kts 114°
2026-05-08 00:28 32.00835 -114.68342 34849 ft 466 kts 114°
2026-05-08 00:28 31.98263 -114.62698 34844 ft 467 kts 114°
2026-05-08 00:29 31.95180 -114.55944 34839 ft 469 kts 114°
2026-05-08 00:29 31.92083 -114.49175 34829 ft 470 kts 114°
2026-05-08 00:30 31.88980 -114.42402 34830 ft 470 kts 114°
2026-05-08 00:30 31.85893 -114.35679 34825 ft 470 kts 114°
2026-05-08 00:31 31.82782 -114.28914 34816 ft 470 kts 114°
2026-05-08 00:31 31.79670 -114.22158 34820 ft 470 kts 114°
2026-05-08 00:32 31.76550 -114.15397 34824 ft 469 kts 114°
2026-05-08 00:32 31.73455 -114.08703 34829 ft 469 kts 114°
2026-05-08 00:33 31.70333 -114.01963 34836 ft 469 kts 114°
2026-05-08 00:33 31.67212 -113.95238 34840 ft 469 kts 115°
2026-05-08 00:34 31.64084 -113.88510 34855 ft 469 kts 115°
2026-05-08 00:34 31.60954 -113.81788 34856 ft 469 kts 115°
2026-05-08 00:35 31.57816 -113.75061 34867 ft 470 kts 115°
2026-05-08 00:35 31.54670 -113.68331 34875 ft 471 kts 115°
2026-05-08 00:36 31.51533 -113.61630 34876 ft 471 kts 115°
2026-05-08 00:36 31.48372 -113.54889 34878 ft 472 kts 115°
2026-05-08 00:37 31.45200 -113.48139 34884 ft 473 kts 115°
2026-05-08 00:38 31.40422 -113.37987 34880 ft 475 kts 115°
2026-05-08 00:38 31.37133 -113.31324 34875 ft 479 kts 122°
2026-05-08 00:39 31.32539 -113.25601 34886 ft 486 kts 136°
2026-05-08 00:39 31.27383 -113.20450 34878 ft 488 kts 137°
2026-05-08 00:40 31.22204 -113.15292 34882 ft 489 kts 136°
2026-05-08 00:40 31.17047 -113.10087 34884 ft 491 kts 136°
2026-05-08 00:41 31.11880 -113.04839 34891 ft 492 kts 136°
2026-05-08 00:41 31.06716 -112.99594 34890 ft 493 kts 137°
2026-05-08 00:42 31.01565 -112.94374 34892 ft 494 kts 137°
2026-05-08 00:42 30.96365 -112.89114 34892 ft 495 kts 137°
2026-05-08 00:43 30.91155 -112.83854 34895 ft 496 kts 137°
2026-05-08 00:43 30.85929 -112.78585 34893 ft 497 kts 138°
2026-05-08 00:44 30.80728 -112.73348 34892 ft 498 kts 138°
2026-05-08 00:44 30.75474 -112.68067 34894 ft 499 kts 139°
2026-05-08 00:45 30.70204 -112.62776 34894 ft 500 kts 139°
2026-05-08 00:45 30.64927 -112.57487 34889 ft 501 kts 139°
2026-05-08 00:46 30.59636 -112.52193 34890 ft 502 kts 140°
2026-05-08 00:46 30.54340 -112.46901 34892 ft 502 kts 140°
2026-05-08 00:47 30.49077 -112.41649 34889 ft 502 kts 140°
2026-05-08 00:47 30.43771 -112.36363 34888 ft 503 kts 141°
2026-05-08 00:48 30.38466 -112.31085 34894 ft 502 kts 141°
2026-05-08 00:48 30.33158 -112.25813 34893 ft 502 kts 141°
2026-05-08 00:49 30.27857 -112.20554 34896 ft 502 kts 141°
2026-05-08 00:49 30.22552 -112.15300 34898 ft 501 kts 142°
2026-05-08 00:50 30.17286 -112.10092 34902 ft 501 kts 142°
2026-05-08 00:50 30.11982 -112.04854 34901 ft 501 kts 142°
2026-05-08 00:51 30.06669 -111.99615 34896 ft 501 kts 142°
2026-05-08 00:51 30.01373 -111.94400 34903 ft 500 kts 142°
2026-05-08 00:52 29.96115 -111.89229 34904 ft 499 kts 143°
2026-05-08 00:52 29.90824 -111.84033 34902 ft 499 kts 143°
2026-05-08 00:53 29.79650 -111.73082 34886 ft 497 kts 143°
2026-05-08 00:53 29.58663 -111.52581 34893 ft 492 kts 144°
2026-05-08 00:54 29.37808 -111.32328 34862 ft 488 kts 145°
2026-05-08 00:54 29.17124 -111.12420 34914 ft 483 kts 146°
2026-05-08 00:55 28.97639 -110.91141 34904 ft 486 kts 139°
2026-05-08 00:55 28.79023 -110.68971 34884 ft 482 kts 141°
2026-05-08 00:56 28.60302 -110.47128 34902 ft 482 kts 141°
2026-05-08 00:56 28.41291 -110.25139 34922 ft 492 kts 142°
2026-05-08 00:57 28.22073 -110.03005 34846 ft 488 kts 143°
2026-05-08 00:57 28.03353 -109.81220 34864 ft 475 kts 143°
2026-05-08 00:58 27.85128 -109.59940 34918 ft 469 kts 144°
2026-05-08 00:58 27.66883 -109.38764 34940 ft 478 kts 145°
2026-05-08 00:59 27.48130 -109.17221 34899 ft 474 kts 146°
2026-05-08 00:59 27.29862 -108.96502 34915 ft 463 kts 146°
2026-05-08 01:00 27.11847 -108.76163 34944 ft 459 kts 147°
2026-05-08 01:00 26.93639 -108.55704 34932 ft 467 kts 146°
2026-05-08 01:01 26.75234 -108.35103 34906 ft 467 kts 146°
2026-05-08 01:01 26.56944 -108.14424 34909 ft 477 kts 139°
2026-05-08 01:02 26.41427 -107.89636 34667 ft 482 kts 136°
2026-05-08 01:02 26.25852 -107.65631 34762 ft 478 kts 136°
2026-05-08 01:02 26.18070 -107.53564 35042 ft 480 kts 137°
2026-05-08 01:03 26.14414 -107.47984 35158 ft 482 kts 136°
2026-05-08 01:03 26.10445 -107.41909 35010 ft 487 kts 136°
2026-05-08 01:04 26.06462 -107.35793 35062 ft 488 kts 137°
2026-05-08 01:04 26.02514 -107.29717 35011 ft 481 kts 135°
2026-05-08 01:05 25.98572 -107.23686 34938 ft 479 kts 136°
2026-05-08 01:05 25.94689 -107.17731 34987 ft 475 kts 136°
2026-05-08 01:06 25.90761 -107.11743 35002 ft 482 kts 136°
2026-05-08 01:06 25.86798 -107.05695 35006 ft 485 kts 136°
2026-05-08 01:07 25.82842 -106.99632 35023 ft 485 kts 136°
2026-05-08 01:07 25.78908 -106.93599 35012 ft 485 kts 136°
2026-05-08 01:08 25.74950 -106.87538 35029 ft 483 kts 136°
2026-05-08 01:08 25.71008 -106.81507 35033 ft 481 kts 136°
2026-05-08 01:09 25.67078 -106.75505 35033 ft 480 kts 136°
2026-05-08 01:09 25.63154 -106.69525 35030 ft 479 kts 136°
2026-05-08 01:10 25.59236 -106.63558 35035 ft 479 kts 136°
2026-05-08 01:10 25.55325 -106.57615 35028 ft 482 kts 136°
2026-05-08 01:11 25.51371 -106.51609 35030 ft 483 kts 136°
2026-05-08 01:11 25.47355 -106.45511 35028 ft 484 kts 136°
2026-05-08 01:12 25.31386 -106.21757 35062 ft 478 kts 137°
2026-05-08 01:12 25.15358 -105.98253 35033 ft 479 kts 137°
2026-05-08 01:13 24.99165 -105.74611 35112 ft 487 kts 136°
2026-05-08 01:13 24.89992 -105.61205 35037 ft 487 kts 136°
2026-05-08 01:14 24.85955 -105.55318 35021 ft 482 kts 136°
2026-05-08 01:14 24.75741 -105.40451 34986 ft 475 kts 136°
2026-05-08 01:15 24.68424 -105.29884 35003 ft 480 kts 136°
2026-05-08 01:15 24.64357 -105.24004 34997 ft 485 kts 136°
2026-05-08 01:16 24.60275 -105.18107 34991 ft 483 kts 136°
2026-05-08 01:16 24.56203 -105.12248 34989 ft 482 kts 136°
2026-05-08 01:17 24.52122 -105.06386 34974 ft 483 kts 136°
2026-05-08 01:17 24.48038 -105.00520 34961 ft 483 kts 136°
2026-05-08 01:18 24.43959 -104.94667 34957 ft 482 kts 136°
2026-05-08 01:18 24.39884 -104.88825 34946 ft 482 kts 136°
2026-05-08 01:19 24.35834 -104.83027 34928 ft 481 kts 136°
2026-05-08 01:19 24.31734 -104.77166 34986 ft 481 kts 136°
2026-05-08 01:20 24.27679 -104.71376 35037 ft 482 kts 136°
2026-05-08 01:20 24.23588 -104.65541 35095 ft 483 kts 136°
2026-05-08 01:21 24.19489 -104.59699 35159 ft 484 kts 136°
2026-05-08 01:21 24.15381 -104.53851 35165 ft 484 kts 136°
2026-05-08 01:22 24.11291 -104.47964 35165 ft 486 kts 135°
2026-05-08 01:22 24.07280 -104.42001 35137 ft 487 kts 134°
2026-05-08 01:23 24.03272 -104.36035 35060 ft 486 kts 134°
2026-05-08 01:23 23.99274 -104.30112 34989 ft 486 kts 134°
2026-05-08 01:24 23.95248 -104.24169 34912 ft 486 kts 134°
2026-05-08 01:24 23.91219 -104.18231 34863 ft 486 kts 134°
2026-05-08 01:25 23.87183 -104.12290 34860 ft 486 kts 134°
2026-05-08 01:25 23.83152 -104.06361 34869 ft 486 kts 134°
2026-05-08 01:26 23.79121 -104.00439 34874 ft 485 kts 134°
2026-05-08 01:26 23.75090 -103.94524 34882 ft 485 kts 134°
2026-05-08 01:27 23.71057 -103.88612 34888 ft 485 kts 134°
2026-05-08 01:27 23.67039 -103.82697 34895 ft 485 kts 134°
2026-05-08 01:28 23.63018 -103.76769 34890 ft 486 kts 134°
2026-05-08 01:28 23.58957 -103.70881 34889 ft 485 kts 134°
2026-05-08 01:29 23.54918 -103.65039 34883 ft 485 kts 134°
2026-05-08 01:29 23.50876 -103.59181 34890 ft 483 kts 134°
2026-05-08 01:30 23.46850 -103.53313 34889 ft 483 kts 134°
2026-05-08 01:30 23.42824 -103.47443 34886 ft 484 kts 134°
2026-05-08 01:31 23.38784 -103.41561 34875 ft 483 kts 134°
2026-05-08 01:31 23.34754 -103.35703 34868 ft 483 kts 133°
2026-05-08 01:32 23.30752 -103.29892 34883 ft 483 kts 134°
2026-05-08 01:32 23.26715 -103.24037 34869 ft 484 kts 133°
2026-05-08 01:33 23.22675 -103.18185 34856 ft 484 kts 133°
2026-05-08 01:33 23.18620 -103.12314 34848 ft 484 kts 133°
2026-05-08 01:34 23.14574 -103.06465 34847 ft 484 kts 133°
2026-05-08 01:34 23.10526 -103.00633 34853 ft 483 kts 133°
2026-05-08 01:35 23.06470 -102.94801 34920 ft 483 kts 134°
2026-05-08 01:35 23.02421 -102.88982 35002 ft 482 kts 133°
2026-05-08 01:36 22.98380 -102.83178 35089 ft 481 kts 133°
2026-05-08 01:36 22.94342 -102.77384 35175 ft 481 kts 133°
2026-05-08 01:37 22.90290 -102.71606 35184 ft 479 kts 136°
2026-05-08 01:37 22.85518 -102.66836 35183 ft 463 kts 153°
2026-05-08 01:38 22.80121 -102.63008 35152 ft 463 kts 153°
2026-05-08 01:38 22.74723 -102.59161 35072 ft 467 kts 149°
2026-05-08 01:39 22.69960 -102.54219 34988 ft 479 kts 139°
2026-05-08 01:39 22.65426 -102.48904 34893 ft 480 kts 139°
2026-05-08 01:40 22.60874 -102.43598 34820 ft 480 kts 139°
2026-05-08 01:40 22.56327 -102.38366 34815 ft 480 kts 139°
2026-05-08 01:41 22.51730 -102.33111 34807 ft 481 kts 139°
2026-05-08 01:41 22.47131 -102.27863 34800 ft 480 kts 139°
2026-05-08 01:42 22.42536 -102.22622 34799 ft 480 kts 139°
2026-05-08 01:42 22.37933 -102.17378 34788 ft 480 kts 139°
2026-05-08 01:43 22.33333 -102.12139 34786 ft 480 kts 139°
2026-05-08 01:43 22.28736 -102.06910 34777 ft 479 kts 139°
2026-05-08 01:44 22.24173 -102.01726 34780 ft 479 kts 139°
2026-05-08 01:44 22.19582 -101.96515 34785 ft 478 kts 139°
2026-05-08 01:45 22.14990 -101.91309 34782 ft 479 kts 139°
2026-05-08 01:45 22.10400 -101.86109 34785 ft 478 kts 139°
2026-05-08 01:46 22.05808 -101.80912 34792 ft 478 kts 139°
2026-05-08 01:46 22.01224 -101.75730 34791 ft 478 kts 139°
2026-05-08 01:47 21.96636 -101.70548 34796 ft 477 kts 139°
2026-05-08 01:47 21.92054 -101.65378 34798 ft 476 kts 139°
2026-05-08 01:48 21.85221 -101.57679 34810 ft 476 kts 138°
2026-05-08 01:48 21.80645 -101.52529 34824 ft 475 kts 138°
2026-05-08 01:49 21.76069 -101.47384 34824 ft 475 kts 138°
2026-05-08 01:49 21.71494 -101.42245 34833 ft 475 kts 138°
2026-05-08 01:50 21.66920 -101.37113 34833 ft 475 kts 138°
2026-05-08 01:50 21.62343 -101.31982 34839 ft 475 kts 138°
2026-05-08 01:51 21.57775 -101.26866 34805 ft 474 kts 138°
2026-05-08 01:51 21.53202 -101.21749 34818 ft 474 kts 138°
2026-05-08 01:52 21.48632 -101.16642 34829 ft 475 kts 138°
2026-05-08 01:52 21.44050 -101.11525 34838 ft 476 kts 138°
2026-05-08 01:53 21.39457 -101.06403 34839 ft 476 kts 138°
2026-05-08 01:53 21.35634 -101.02142 34826 ft 477 kts 138°
2026-05-08 01:54 21.31037 -100.97021 34827 ft 476 kts 138°
2026-05-08 01:54 21.26451 -100.91917 34822 ft 473 kts 138°
2026-05-08 01:55 21.21914 -100.86874 34820 ft 472 kts 138°
2026-05-08 01:55 21.17356 -100.81813 34821 ft 471 kts 138°
2026-05-08 01:56 21.12809 -100.76769 34820 ft 470 kts 138°
2026-05-08 01:56 21.08253 -100.71719 34819 ft 471 kts 138°
2026-05-08 01:57 21.03698 -100.66676 34819 ft 471 kts 138°
2026-05-08 01:57 20.99167 -100.61664 34815 ft 472 kts 138°
2026-05-08 01:58 20.94600 -100.56617 34815 ft 473 kts 138°
2026-05-08 01:58 20.90019 -100.51559 34819 ft 474 kts 138°
2026-05-08 01:59 20.85423 -100.46488 34823 ft 475 kts 138°
2026-05-08 01:59 20.80821 -100.41415 34919 ft 475 kts 138°
2026-05-08 02:00 20.76225 -100.36354 35016 ft 474 kts 138°
2026-05-08 02:00 20.71628 -100.31296 35110 ft 473 kts 138°
2026-05-08 02:01 20.67044 -100.26259 35204 ft 473 kts 138°
2026-05-08 02:01 20.62466 -100.21232 35166 ft 473 kts 138°
2026-05-08 02:02 20.60152 -100.18694 34572 ft 479 kts 138°
2026-05-08 02:02 20.57837 -100.16155 33918 ft 476 kts 137°
2026-05-08 02:02 20.55524 -100.13618 33128 ft 477 kts 137°
2026-05-08 02:02 20.53242 -100.11118 32352 ft 477 kts 137°
2026-05-08 02:03 20.50927 -100.08582 31534 ft 477 kts 137°
2026-05-08 02:03 20.48600 -100.06035 30674 ft 479 kts 137°
2026-05-08 02:03 20.46272 -100.03487 29719 ft 481 kts 137°
2026-05-08 02:03 20.43937 -100.00933 28718 ft 481 kts 137°
2026-05-08 02:04 20.41601 -99.98378 27729 ft 481 kts 137°
2026-05-08 02:04 20.39265 -99.95824 26721 ft 481 kts 137°
2026-05-08 02:04 20.36935 -99.93279 25912 ft 477 kts 137°
2026-05-08 02:04 20.34631 -99.90761 25211 ft 471 kts 137°
2026-05-08 02:05 20.32355 -99.88276 24539 ft 466 kts 137°
2026-05-08 02:05 20.30103 -99.85819 23847 ft 462 kts 137°
2026-05-08 02:05 20.27864 -99.83378 23099 ft 457 kts 137°
2026-05-08 02:05 20.25571 -99.81107 22742 ft 442 kts 144°
2026-05-08 02:06 20.23164 -99.79153 22450 ft 431 kts 146°
2026-05-08 02:06 20.20718 -99.77244 22212 ft 442 kts 146°
2026-05-08 02:06 20.18206 -99.75299 21991 ft 449 kts 146°
2026-05-08 02:06 20.15678 -99.73331 21743 ft 448 kts 146°
2026-05-08 02:07 20.13180 -99.71368 21493 ft 444 kts 146°
2026-05-08 02:07 20.10742 -99.69439 21259 ft 441 kts 146°
2026-05-08 02:07 20.08287 -99.67490 21018 ft 439 kts 146°
2026-05-08 02:07 20.05847 -99.65549 20787 ft 438 kts 145°
2026-05-08 02:08 20.03406 -99.63607 20558 ft 438 kts 145°
2026-05-08 02:08 20.00975 -99.61673 20042 ft 435 kts 145°
2026-05-08 02:08 19.98562 -99.59754 19421 ft 430 kts 145°
2026-05-08 02:08 19.96169 -99.57852 18768 ft 427 kts 145°
2026-05-08 02:09 19.93796 -99.55969 18063 ft 425 kts 145°
2026-05-08 02:09 19.91435 -99.54096 17288 ft 422 kts 145°
2026-05-08 02:09 19.89082 -99.52228 16419 ft 420 kts 144°
2026-05-08 02:09 19.86762 -99.50385 15799 ft 408 kts 145°
2026-05-08 02:10 19.84556 -99.48634 15600 ft 386 kts 144°
2026-05-08 02:10 19.82460 -99.46972 15440 ft 367 kts 144°
2026-05-08 02:10 19.80474 -99.45399 15286 ft 356 kts 144°
2026-05-08 02:10 19.78472 -99.43815 15153 ft 353 kts 144°
2026-05-08 02:11 19.76509 -99.42262 15011 ft 350 kts 144°
2026-05-08 02:11 19.74567 -99.40726 14869 ft 346 kts 144°
2026-05-08 02:11 19.72654 -99.39213 14724 ft 340 kts 144°
2026-05-08 02:11 19.70775 -99.37727 14594 ft 333 kts 144°
2026-05-08 02:12 19.68949 -99.36284 14486 ft 329 kts 144°
2026-05-08 02:12 19.67126 -99.34842 14350 ft 325 kts 144°
2026-05-08 02:12 19.65406 -99.33482 14243 ft 323 kts 144°
2026-05-08 02:12 19.63606 -99.32060 14117 ft 323 kts 144°
2026-05-08 02:13 19.61808 -99.30640 13998 ft 322 kts 144°
2026-05-08 02:13 19.60015 -99.29224 13883 ft 322 kts 144°
2026-05-08 02:13 19.58195 -99.27798 13485 ft 327 kts 144°
2026-05-08 02:13 19.56356 -99.26366 13131 ft 328 kts 144°
2026-05-08 02:14 19.54516 -99.24934 12749 ft 324 kts 144°
2026-05-08 02:14 19.52586 -99.23808 12374 ft 314 kts 161°
2026-05-08 02:14 19.50472 -99.23428 12029 ft 303 kts 177°
2026-05-08 02:14 19.48412 -99.23398 11671 ft 291 kts 179°
2026-05-08 02:15 19.46423 -99.23392 11296 ft 280 kts 179°
2026-05-08 02:15 19.44527 -99.23375 10972 ft 266 kts 179°
2026-05-08 02:15 19.42712 -99.23350 10631 ft 256 kts 178°
2026-05-08 02:15 19.40965 -99.23322 10304 ft 246 kts 177°
2026-05-08 02:16 19.39311 -99.23055 9951 ft 236 kts 156°
2026-05-08 02:16 19.38049 -99.22101 9658 ft 220 kts 127°
2026-05-08 02:16 19.37387 -99.20731 9463 ft 201 kts 102°
2026-05-08 02:16 19.37261 -99.19295 9380 ft 196 kts 77°
2026-05-08 02:17 19.37695 -99.17957 9348 ft 188 kts 65°
2026-05-08 02:17 19.38236 -99.16694 9238 ft 188 kts 62°
2026-05-08 02:17 19.38855 -99.15492 9076 ft 182 kts 58°
2026-05-08 02:17 19.39482 -99.14364 8915 ft 172 kts 58°
2026-05-08 02:18 19.40077 -99.13298 8676 ft 163 kts 57°
2026-05-08 02:18 19.40651 -99.12269 8387 ft 167 kts 56°
2026-05-08 02:18 19.41252 -99.11186 8067 ft 171 kts 57°
2026-05-08 02:18 19.41840 -99.10116 7761 ft 164 kts 57°
2026-05-08 02:19 19.42428 -99.09060 7493 ft 169 kts 54°
2026-05-08 02:19 19.43024 -99.08003 7313 ft 164 kts 55°
2026-05-08 02:19 19.43560 -99.07051 7303 ft 133 kts 57°
2026-05-08 02:19 19.43884 -99.06476 7302 ft 55 kts 59°
2026-05-08 02:20 19.44074 -99.06137 7300 ft 50 kts 59°
2026-05-08 02:20 19.44241 -99.05936 7302 ft 9 kts 12°
2026-05-08 02:20 19.44291 -99.05956 7302 ft 8 kts 313°
2026-05-08 02:20 19.44314 -99.06006 7302 ft 7 kts 292°
2026-05-08 02:21 19.44334 -99.06058 7302 ft 8 kts 292°
2026-05-08 02:21 19.44355 -99.06111 7302 ft 8 kts 292°
2026-05-08 02:21 19.44379 -99.06177 7300 ft 14 kts 292°
2026-05-08 02:21 19.44416 -99.06268 7302 ft 13 kts 291°
2026-05-08 02:22 19.44449 -99.06356 7302 ft 13 kts 290°
2026-05-08 02:22 19.44434 -99.06451 7302 ft 14 kts 239°
2026-05-08 02:22 19.44379 -99.06549 7302 ft 16 kts 239°
2026-05-08 02:22 19.44317 -99.06659 7302 ft 18 kts 240°
2026-05-08 02:23 19.44253 -99.06774 7302 ft 18 kts 239°
2026-05-08 02:23 19.44188 -99.06886 7302 ft 17 kts 239°
2026-05-08 02:23 19.44127 -99.06993 7302 ft 17 kts 239°
2026-05-08 02:23 19.44070 -99.07098 7302 ft 16 kts 239°
2026-05-08 02:24 19.44014 -99.07198 7302 ft 15 kts 239°
2026-05-08 02:24 19.43960 -99.07293 7302 ft 15 kts 239°
2026-05-08 02:24 19.43925 -99.07355 7302 ft 14 kts 239°